| time (UTC) | temp C | wind direction | speed KPH | gust KPH | rain 1hr cm | rain 24hr cm | rain mn cm | humidity % | barometer mb |
| 20260508013236 | 11 | 120 | 4.8 | 6.4 | 0.00 | 0.00 | 0.00 | 100 | |
| 20260508012736 | 11 | 120 | 3.2 | 4.8 | 0.00 | 0.00 | 0.00 | 100 | |
| 20260508012236 | 11 | 120 | 3.2 | 4.8 | 0.00 | 0.00 | 0.00 | 100 | |
| 20260508011736 | 11 | 120 | 6.4 | 6.4 | 0.00 | 0.00 | 0.00 | 100 | |
| 20260508011236 | 11 | 115 | 4.8 | 6.4 | 0.00 | 0.00 | 0.00 | 100 | |
| 20260508010735 | 11 | 115 | 4.8 | 6.4 | 0.00 | 0.00 | 0.00 | 100 | |
| 20260508010235 | 11 | 115 | 6.4 | 8.0 | 0.00 | 0.00 | 0.00 | 100 | |
| 20260508005735 | 11 | 115 | 6.4 | 8.0 | 0.00 | 0.00 | 0.00 | 100 | |
| 20260508005235 | 11 | 115 | 8.0 | 9.7 | 0.00 | 0.00 | 0.00 | 100 | |
| 20260508004734 | 11 | 117 | 6.4 | 6.4 | 0.00 | 0.00 | 0.00 | 100 | |
| 20260508004234 | 11 | 120 | 3.2 | 3.2 | 0.00 | 0.00 | 0.00 | 100 | |
| 20260508003734 | 11 | 120 | 3.2 | 4.8 | 0.00 | 0.00 | 0.00 | 100 | |
| 20260508003234 | 11 | 120 | 4.8 | 4.8 | 0.00 | 0.00 | 0.00 | 100 | |
| 20260508002734 | 11 | 124 | 4.8 | 4.8 | 0.00 | 0.00 | 0.00 | 100 | |
| 20260508002234 | 11 | 118 | 3.2 | 4.8 | 0.00 | 0.00 | 0.00 | 100 | |
| 20260508001733 | 11 | 115 | 3.2 | 3.2 | 0.00 | 0.00 | 0.00 | 100 | |
| 20260508001233 | 11 | 115 | 3.2 | 3.2 | 0.00 | 0.00 | 0.00 | 100 | |
| 20260508000733 | 11 | 115 | 3.2 | 3.2 | 0.00 | 0.00 | 0.00 | 100 | |
| 20260508000234 | 11 | 113 | 6.4 | 8.0 | 0.00 | 0.00 | 0.00 | 100 | |
| 20260507235733 | 12 | 110 | 9.7 | 11.3 | 0.00 | 0.00 | 0.00 | 100 | |
| 20260507235232 | 12 | 118 | 8.0 | 8.0 | 0.00 | 0.00 | 0.00 | 100 | |
| 20260507234732 | 11 | 130 | 4.8 | 6.4 | 0.00 | 0.00 | 0.00 | 100 | |
| 20260507234222 | 11 | 149 | 3.2 | 3.2 | 0.00 | 0.00 | 0.00 | 100 | |
| 20260507233722 | 11 | 149 | 3.2 | 4.8 | 0.00 | 0.00 | 0.00 | 100 | |
| 20260507233222 | 11 | 149 | 3.2 | 3.2 | 0.00 | 0.00 | 0.00 | 100 | |
| 20260507232722 | 11 | 145 | 3.2 | 4.8 | 0.00 | 0.00 | 0.00 | 100 | |
| 20260507232221 | 11 | 147 | 3.2 | 6.4 | 0.00 | 0.00 | 0.00 | 100 | |
| 20260507231721 | 11 | 141 | 3.2 | 3.2 | 0.00 | 0.00 | 0.00 | 100 | |
| 20260507231221 | 12 | 138 | 3.2 | 8.0 | 0.00 | 0.00 | 0.00 | 100 | |
| 20260507230720 | 12 | 129 | 6.4 | 11.3 | 0.00 | 0.00 | 0.00 | 100 | |
| 20260507230220 | 12 | 128 | 9.7 | 11.3 | 0.00 | 0.00 | 0.00 | 100 | |
| 20260507225720 | 12 | 131 | 6.4 | 9.7 | 0.00 | 0.00 | 0.00 | 100 | |
| 20260507225220 | 11 | 143 | 3.2 | 4.8 | 0.00 | 0.00 | 0.00 | 100 | |
| 20260507224720 | 11 | 156 | 4.8 | 6.4 | 0.00 | 0.00 | 0.00 | 100 | |
| 20260507224219 | 11 | 161 | 6.4 | 8.0 | 0.00 | 0.00 | 0.00 | 100 | |
| 20260507223719 | 11 | 139 | 6.4 | 8.0 | 0.00 | 0.00 | 0.00 | 100 | |
| 20260507223219 | 11 | 135 | 6.4 | 12.9 | 0.00 | 0.00 | 0.00 | 100 | |
| 20260507222719 | 12 | 138 | 4.8 | 6.4 | 0.00 | 0.00 | 0.00 | 100 | |
| 20260507222219 | 12 | 124 | 6.4 | 12.9 | 0.00 | 0.00 | 0.00 | 100 | |
| 20260507221719 | 12 | 117 | 12.9 | 14.5 | 0.00 | 0.00 | 0.00 | 100 | |
| 20260507220716 | 11 | 270 | 6.4 | 14.5 | 0.00 | 0.00 | 0.00 | 100 | |
| 20260507215151 | 11 | 262 | 3.2 | 4.8 | 0.00 | 0.00 | 0.00 | 100 | |
| 20260507214650 | 11 | 173 | 3.2 | 4.8 | 0.00 | 0.00 | 0.00 | 100 | |
| 20260507214150 | 11 | 214 | 3.2 | 3.2 | 0.00 | 0.00 | 0.00 | 100 | |
| 20260507213650 | 11 | 214 | 3.2 | 3.2 | 0.00 | 0.00 | 0.00 | 100 | |
| 20260507213150 | 11 | 214 | 3.2 | 3.2 | 0.00 | 0.00 | 0.00 | 100 | |
| 20260507212018 | 11 | 173 | 3.2 | 3.2 | 0.00 | 0.00 | 0.00 | 100 | |
| 20260507211517 | 11 | 173 | 3.2 | 3.2 | 0.00 | 0.00 | 0.00 | 100 | |
| 20260507211017 | 11 | 173 | 3.2 | 3.2 | 0.00 | 0.00 | 0.00 | 100 | |
| 20260507210517 | 11 | 173 | 3.2 | 3.2 | 0.00 | 0.00 | 0.00 | 100 | |
| 20260507210017 | 11 | 173 | 3.2 | 4.8 | 0.00 | 0.00 | 0.00 | 100 | |
| 20260507205517 | 11 | 193 | 3.2 | 4.8 | 0.00 | 0.00 | 0.00 | 100 | |
| 20260507205017 | 11 | 196 | 3.2 | 3.2 | 0.00 | 0.00 | 0.00 | 100 | |
| 20260507204516 | 11 | 196 | 3.2 | 3.2 | 0.00 | 0.00 | 0.00 | 100 | |
| 20260507203516 | 11 | 196 | 3.2 | 3.2 | 0.00 | 0.00 | 0.00 | 100 | |
| 20260507203016 | 11 | 196 | 3.2 | 3.2 | 0.00 | 0.00 | 0.00 | 100 | |
| 20260507202505 | 11 | 196 | 3.2 | 3.2 | 0.00 | 0.00 | 0.00 | 100 | |
| 20260507202006 | 11 | 196 | 3.2 | 3.2 | 0.00 | 0.00 | 0.00 | 100 | |
| 20260507201505 | 11 | 196 | 3.2 | 3.2 | 0.00 | 0.00 | 0.00 | 100 | |
| 20260507201005 | 11 | 196 | 3.2 | 3.2 | 0.00 | 0.00 | 0.00 | 100 | |
| 20260507200505 | 11 | 206 | 4.8 | 6.4 | 0.00 | 0.00 | 0.00 | 100 | |
| 20260507200001 | 11 | 147 | 4.8 | 8.0 | 0.00 | 0.00 | 0.00 | 100 | |
| 20260507195501 | 11 | 195 | 3.2 | 4.8 | 0.00 | 0.00 | 0.00 | 100 | |
| 20260507195001 | 11 | 198 | 3.2 | 4.8 | 0.00 | 0.00 | 0.00 | 100 | |
| 20260507194501 | 11 | 221 | 3.2 | 4.8 | 0.00 | 0.00 | 0.00 | 100 | |
| 20260507194000 | 11 | 115 | 1.6 | 1.6 | 0.00 | 0.00 | 0.00 | 100 | |
| 20260507193500 | 11 | 115 | 1.6 | 1.6 | 0.00 | 0.00 | 0.00 | 100 | |
| 20260507192959 | 11 | 115 | 1.6 | 1.6 | 0.00 | 0.00 | 0.00 | 100 | |
| 20260507192459 | 11 | 115 | 1.6 | 1.6 | 0.00 | 0.00 | 0.00 | 100 | |
| 20260507191959 | 11 | 115 | 1.6 | 1.6 | 0.00 | 0.00 | 0.00 | 100 | |
| 20260507191459 | 11 | 115 | 1.6 | 1.6 | 0.00 | 0.00 | 0.00 | 100 | |
| 20260507190959 | 11 | 115 | 3.2 | 3.2 | 0.00 | 0.00 | 0.00 | 100 | |
| 20260507190459 | 12 | 115 | 3.2 | 3.2 | 0.00 | 0.00 | 0.00 | 100 | |
| 20260507185958 | 12 | 115 | 4.8 | 4.8 | 0.00 | 0.00 | 0.00 | 100 | |
| 20260507185458 | 12 | 120 | 4.8 | 6.4 | 0.00 | 0.00 | 0.00 | 100 | |
| 20260507184958 | 12 | 120 | 4.8 | 6.4 | 0.00 | 0.00 | 0.00 | 100 | |
| 20260507184458 | 12 | 115 | 6.4 | 6.4 | 0.00 | 0.00 | 0.00 | 100 | |
| 20260507183457 | 12 | 120 | 6.4 | 8.0 | 0.00 | 0.00 | 0.00 | 100 | |
| 20260507182957 | 12 | 120 | 6.4 | 6.4 | 0.00 | 0.00 | 0.00 | 100 | |
| 20260507182457 | 12 | 115 | 6.4 | 6.4 | 0.00 | 0.00 | 0.00 | 100 | |
| 20260507181957 | 12 | 115 | 8.0 | 9.7 | 0.00 | 0.00 | 0.00 | 100 | |
| 20260507181456 | 12 | 116 | 6.4 | 8.0 | 0.00 | 0.00 | 0.00 | 100 | |
| 20260507180953 | 12 | 119 | 6.4 | 8.0 | 0.00 | 0.00 | 0.00 | 100 | |
| 20260507180453 | 12 | 119 | 8.0 | 9.7 | 0.00 | 0.00 | 0.00 | 100 | |
| 20260507175953 | 12 | 115 | 8.0 | 8.0 | 0.00 | 0.00 | 0.00 | 100 | |
| 20260507175453 | 12 | 111 | 6.4 | 8.0 | 0.00 | 0.00 | 0.00 | 100 | |
| 20260507174940 | 12 | 115 | 6.4 | 6.4 | 0.00 | 0.00 | 0.00 | 100 | |
| 20260507174439 | 12 | 115 | 8.0 | 9.7 | 0.00 | 0.00 | 0.00 | 100 | |
| 20260507173939 | 12 | 115 | 8.0 | 9.7 | 0.00 | 0.00 | 0.00 | 100 | |
| 20260507173439 | 12 | 114 | 6.4 | 8.0 | 0.00 | 0.00 | 0.00 | 100 | |
| 20260507172939 | 12 | 115 | 4.8 | 6.4 | 0.00 | 0.00 | 0.00 | 100 | |
| 20260507172438 | 12 | 116 | 4.8 | 8.0 | 0.00 | 0.00 | 0.00 | 100 | |
| 20260507171938 | 12 | 115 | 6.4 | 6.4 | 0.00 | 0.00 | 0.00 | 100 | |
| 20260507171438 | 12 | 117 | 4.8 | 6.4 | 0.00 | 0.00 | 0.00 | 100 | |
| 20260507170938 | 12 | 118 | 6.4 | 9.7 | 0.00 | 0.00 | 0.00 | 100 | |
| 20260507170438 | 12 | 120 | 8.0 | 8.0 | 0.00 | 0.00 | 0.00 | 100 | |
| 20260507165938 | 12 | 117 | 9.7 | 11.3 | 0.00 | 0.00 | 0.00 | 100 | |
| 20260507165437 | 12 | 115 | 6.4 | 8.0 | 0.00 | 0.00 | 0.00 | 100 | |
| 20260507164937 | 12 | 120 | 8.0 | 8.0 | 0.00 | 0.00 | 0.00 | 100 | |
| 20260507164437 | 13 | 116 | 8.0 | 9.7 | 0.00 | 0.00 | 0.00 | 100 | |
| 20260507163937 | 13 | 120 | 8.0 | 9.7 | 0.00 | 0.00 | 0.00 | 100 | |
| 20260507163436 | 12 | 115 | 8.0 | 9.7 | 0.00 | 0.00 | 0.00 | 100 | |
| 20260507162936 | 12 | 153 | 4.8 | 6.4 | 0.00 | 0.00 | 0.00 | 100 | |
| 20260507162436 | 12 | 196 | 3.2 | 3.2 | 0.00 | 0.00 | 0.00 | 100 | |
| 20260507161932 | 12 | 190 | 3.2 | 3.2 | 0.00 | 0.00 | 0.00 | 100 | |
| 20260507161432 | 12 | 182 | 6.4 | 8.0 | 0.00 | 0.00 | 0.00 | 100 | |
| 20260507160932 | 13 | 184 | 6.4 | 9.7 | 0.00 | 0.00 | 0.00 | 100 | |
| 20260507160432 | 13 | 188 | 9.7 | 19.3 | 0.00 | 0.00 | 0.00 | 100 | |
| 20260507155931 | 12 | 200 | 4.8 | 11.3 | 0.00 | 0.00 | 0.00 | 100 | |
| 20260507155431 | 13 | 103 | 6.4 | 11.3 | 0.00 | 0.00 | 0.00 | 100 | |
| 20260507154929 | 13 | 104 | 8.0 | 9.7 | 0.00 | 0.00 | 0.00 | 100 | |
| 20260507154429 | 13 | 50 | 8.0 | 9.7 | 0.00 | 0.00 | 0.00 | 100 | |
| 20260507153927 | 12 | 259 | 6.4 | 8.0 | 0.00 | 0.00 | 0.00 | 100 | |
| 20260507153427 | 12 | 278 | 8.0 | 12.9 | 0.00 | 0.00 | 0.00 | 100 | |
| 20260507152923 | 13 | 229 | 11.3 | 37.0 | 0.00 | 0.00 | 0.00 | 100 | |
| 20260507152421 | 13 | 220 | 9.7 | 12.9 | 0.00 | 0.00 | 0.00 | 100 | |
| 20260507151920 | 13 | 229 | 8.0 | 11.3 | 0.00 | 0.00 | 0.00 | 100 | |
| 20260507151411 | 13 | 199 | 4.8 | 9.7 | 0.00 | 0.00 | 0.00 | 100 | |
| 20260507150910 | 13 | 215 | 8.0 | 9.7 | 0.00 | 0.00 | 0.00 | 100 | |
| 20260507150410 | 13 | 220 | 3.2 | 3.2 | 0.00 | 0.00 | 0.00 | 100 | |
| 20260507145910 | 13 | 88 | 3.2 | 3.2 | 0.00 | 0.00 | 0.00 | 100 | |
| 20260507145410 | 13 | 113 | 6.4 | 9.7 | 0.00 | 0.00 | 0.00 | 100 | |
| 20260507144910 | 13 | 107 | 9.7 | 9.7 | 0.00 | 0.00 | 0.00 | 100 | |
| 20260507144409 | 13 | 115 | 8.0 | 9.7 | 0.00 | 0.00 | 0.00 | 100 | |
| 20260507143909 | 13 | 130 | 4.8 | 6.4 | 0.00 | 0.00 | 0.00 | 100 | |
| 20260507143407 | 13 | 53 | 8.0 | 24.1 | 0.00 | 0.00 | 0.00 | 100 | |
| 20260507142858 | 13 | 98 | 8.0 | 9.7 | 0.00 | 0.00 | 0.00 | 100 | |
| 20260507142358 | 13 | 128 | 11.3 | 14.5 | 0.00 | 0.00 | 0.00 | 100 | |
| 20260507141858 | 13 | 120 | 12.9 | 14.5 | 0.00 | 0.00 | 0.00 | 100 | |
| 20260507141357 | 13 | 120 | 14.5 | 16.1 | 0.00 | 0.00 | 0.00 | 100 | |
| 20260507140857 | 13 | 115 | 9.7 | 11.3 | 0.00 | 0.00 | 0.00 | 100 | |
| 20260507140357 | 13 | 115 | 11.3 | 12.9 | 0.00 | 0.00 | 0.00 | 100 | |
| 20260507135356 | 14 | 107 | 4.8 | 8.0 | 0.00 | 0.00 | 0.00 | 100 | |
| 20260507134856 | 15 | 105 | 3.2 | 6.4 | 0.00 | 0.00 | 0.00 | 100 | |
| 20260507134356 | 15 | 111 | 3.2 | 4.8 | 0.00 | 0.00 | 0.00 | 100 | |
| 20260507133856 | 15 | 110 | 4.8 | 6.4 | 0.00 | 0.00 | 0.00 | 100 | |
| 20260507133356 | 15 | 105 | 11.3 | 12.9 | 0.00 | 0.00 | 0.00 | 100 | |
| 20260507132856 | 15 | 106 | 9.7 | 14.5 | 0.00 | 0.00 | 0.00 | 100 | |
| 20260507131355 | 15 | 142 | 3.2 | 4.8 | 0.00 | 0.00 | 0.00 | 100 | |
| 20260507130855 | 15 | 205 | 3.2 | 3.2 | 0.00 | 0.00 | 0.00 | 100 | |
| 20260507130355 | 15 | 274 | 4.8 | 8.0 | 0.00 | 0.00 | 0.00 | 100 | |
| 20260507125351 | 16 | 234 | 8.0 | 14.5 | 0.00 | 0.00 | 0.00 | 100 | |
| 20260507124850 | 16 | 208 | 6.4 | 11.3 | 0.00 | 0.00 | 0.00 | 100 | |
| 20260507123834 | 17 | 147 | 4.8 | 6.4 | 0.00 | 0.00 | 0.00 | 100 | |
| 20260507123334 | 16 | 102 | 3.2 | 3.2 | 0.00 | 0.00 | 0.00 | 100 | |
| 20260507122834 | 16 | 102 | 3.2 | 4.8 | 0.00 | 0.00 | 0.00 | 100 | |
| 20260507122333 | 16 | 97 | 4.8 | 6.4 | 0.00 | 0.00 | 0.00 | 100 | |
| 20260507121833 | 16 | 92 | 4.8 | 6.4 | 0.00 | 0.00 | 0.00 | 100 | |
| 20260507121333 | 16 | 91 | 4.8 | 6.4 | 0.00 | 0.00 | 0.00 | 100 | |
| 20260507120833 | 16 | 4 | 6.4 | 8.0 | 0.00 | 0.00 | 0.00 | 100 | |
| 20260507115830 | 16 | 267 | 3.2 | 4.8 | 0.00 | 0.00 | 0.00 | 100 | |
| 20260507115330 | 16 | 90 | 3.2 | 3.2 | 0.00 | 0.00 | 0.00 | 100 | |
| 20260507114829 | 15 | 91 | 3.2 | 4.8 | 0.00 | 0.00 | 0.00 | 100 | |
| 20260507114329 | 15 | 94 | 6.4 | 9.7 | 0.00 | 0.00 | 0.00 | 100 | |
| 20260507113829 | 16 | 91 | 4.8 | 6.4 | 0.00 | 0.00 | 0.00 | 100 | |
| 20260507113329 | 16 | 87 | 6.4 | 8.0 | 0.00 | 0.00 | 0.00 | 100 | |
| 20260507112829 | 16 | 91 | 6.4 | 9.7 | 0.00 | 0.00 | 0.00 | 100 | |
| 20260507112327 | 16 | 264 | 6.4 | 9.7 | 0.00 | 0.00 | 0.00 | 100 | |
| 20260507111819 | 16 | 221 | 6.4 | 11.3 | 0.00 | 0.00 | 0.00 | 100 | |
| 20260507110815 | 17 | 186 | 8.0 | 12.9 | 0.00 | 0.00 | 0.00 | 100 | |
| 20260507110314 | 17 | 213 | 4.8 | 9.7 | 0.00 | 0.00 | 0.00 | 100 | |
| 20260507105813 | 17 | 194 | 8.0 | 12.9 | 0.00 | 0.00 | 0.00 | 100 | |
| 20260507105312 | 18 | 197 | 6.4 | 11.3 | 0.00 | 0.00 | 0.00 | 100 | |
| 20260507104809 | 18 | 202 | 9.7 | 16.1 | 0.00 | 0.00 | 0.00 | 100 | |
| 20260507104309 | 18 | 184 | 6.4 | 9.7 | 0.00 | 0.00 | 0.00 | 100 | |
| 20260507103808 | 18 | 182 | 6.4 | 9.7 | 0.00 | 0.00 | 0.00 | 100 | |
| 20260507103308 | 18 | 191 | 8.0 | 11.3 | 0.00 | 0.00 | 0.00 | 100 | |
| 20260507102808 | 18 | 97 | 4.8 | 4.8 | 0.00 | 0.00 | 0.00 | 100 | |
| 20260507102307 | 18 | 115 | 3.2 | 3.2 | 0.00 | 0.00 | 0.00 | 100 | |
| 20260507101807 | 18 | 151 | 3.2 | 4.8 | 0.00 | 0.00 | 0.00 | 100 | |
| 20260507101307 | 18 | 168 | 3.2 | 4.8 | 0.00 | 0.00 | 0.00 | 100 | |
| 20260507100807 | 18 | 151 | 9.7 | 16.1 | 0.00 | 0.00 | 0.00 | 100 | |
| 20260507100256 | 18 | 125 | 3.2 | 8.0 | 0.00 | 0.00 | 0.00 | 100 | |
| 20260507095756 | 18 | 135 | 11.3 | 17.7 | 0.00 | 0.00 | 0.00 | 100 | |
| 20260507095256 | 18 | 120 | 8.0 | 12.9 | 0.00 | 0.00 | 0.00 | 100 | |
| 20260507094756 | 18 | 120 | 6.4 | 11.3 | 0.00 | 0.00 | 0.00 | 100 | |
| 20260507093754 | 19 | 126 | 9.7 | 16.1 | 0.00 | 0.00 | 0.00 | 100 | |
| 20260507093254 | 18 | 135 | 12.9 | 17.7 | 0.00 | 0.00 | 0.00 | 100 | |
| 20260507092754 | 18 | 127 | 12.9 | 17.7 | 0.00 | 0.00 | 0.00 | 100 | |
| 20260507091753 | 18 | 140 | 12.9 | 17.7 | 0.00 | 0.00 | 0.00 | 100 | |
| 20260507091253 | 18 | 131 | 16.1 | 20.9 | 0.00 | 0.00 | 0.00 | 100 | |
| 20260507090753 | 18 | 125 | 9.7 | 19.3 | 0.00 | 0.00 | 0.00 | 100 | |
| 20260507090253 | 18 | 125 | 11.3 | 19.3 | 0.00 | 0.00 | 0.00 | 100 | |
| 20260507085749 | 18 | 124 | 11.3 | 19.3 | 0.00 | 0.00 | 0.00 | 100 | |
| 20260507085249 | 18 | 138 | 9.7 | 12.9 | 0.00 | 0.00 | 0.00 | 100 | |
| 20260507084749 | 17 | 122 | 6.4 | 11.3 | 0.00 | 0.00 | 0.00 | 100 | |
| 20260507084249 | 17 | 119 | 4.8 | 9.7 | 0.00 | 0.00 | 0.00 | 100 | |
| 20260507083749 | 18 | 122 | 8.0 | 14.5 | 0.00 | 0.00 | 0.00 | 100 | |
| 20260507083249 | 18 | 137 | 9.7 | 16.1 | 0.00 | 0.00 | 0.00 | 100 | |
| 20260507082748 | 18 | 136 | 8.0 | 9.7 | 0.00 | 0.00 | 0.00 | 100 | |
| 20260507082248 | 17 | 131 | 11.3 | 16.1 | 0.00 | 0.00 | 0.00 | 100 | |
| 20260507081748 | 17 | 145 | 11.3 | 19.3 | 0.00 | 0.00 | 0.00 | 100 | |
| 20260507081248 | 17 | 131 | 11.3 | 16.1 | 0.00 | 0.00 | 0.00 | 100 | |
| 20260507080748 | 17 | 134 | 4.8 | 6.4 | 0.00 | 0.00 | 0.00 | 100 | |
| 20260507080247 | 17 | 139 | 9.7 | 19.3 | 0.00 | 0.00 | 0.00 | 100 | |
| 20260507075747 | 17 | 135 | 14.5 | 22.5 | 0.00 | 0.00 | 0.00 | 100 | |
| 20260507075247 | 17 | 141 | 9.7 | 16.1 | 0.00 | 0.00 | 0.00 | 100 | |
| 20260507074247 | 17 | 137 | 12.9 | 19.3 | 0.00 | 0.00 | 0.00 | 100 | |
| 20260507073747 | 17 | 140 | 9.7 | 17.7 | 0.00 | 0.00 | 0.00 | 100 | |
| 20260507073246 | 17 | 149 | 11.3 | 17.7 | 0.00 | 0.00 | 0.00 | 100 | |
| 20260507072733 | 17 | 133 | 11.3 | 14.5 | 0.00 | 0.00 | 0.00 | 100 | |
| 20260507072233 | 17 | 131 | 8.0 | 12.9 | 0.00 | 0.00 | 0.00 | 100 | |
| 20260507071733 | 17 | 122 | 8.0 | 11.3 | 0.00 | 0.00 | 0.00 | 100 | |
| 20260507071232 | 17 | 125 | 11.3 | 24.1 | 0.00 | 0.00 | 0.00 | 100 | |
| 20260507070728 | 17 | 119 | 14.5 | 29.0 | 0.00 | 0.00 | 0.00 | 100 | |
| 20260507070228 | 17 | 122 | 16.1 | 24.1 | 0.00 | 0.00 | 0.00 | 100 | |
| 20260507065728 | 17 | 119 | 8.0 | 11.3 | 0.00 | 0.00 | 0.00 | 100 | |
| 20260507065228 | 17 | 140 | 9.7 | 12.9 | 0.00 | 0.00 | 0.00 | 100 | |
| 20260507064728 | 17 | 136 | 8.0 | 11.3 | 0.00 | 0.00 | 0.00 | 100 | |
| 20260507064227 | 17 | 133 | 6.4 | 11.3 | 0.00 | 0.00 | 0.00 | 100 | |
| 20260507063726 | 17 | 145 | 11.3 | 16.1 | 0.00 | 0.00 | 0.00 | 100 | |
| 20260507063226 | 17 | 126 | 6.4 | 12.9 | 0.00 | 0.00 | 0.00 | 100 | |
| 20260507062726 | 17 | 135 | 6.4 | 11.3 | 0.00 | 0.00 | 0.00 | 100 | |
| 20260507062226 | 17 | 127 | 6.4 | 12.9 | 0.00 | 0.00 | 0.00 | 100 | |
| 20260507061725 | 17 | 132 | 9.7 | 14.5 | 0.00 | 0.00 | 0.00 | 100 | |
| 20260507061225 | 17 | 127 | 12.9 | 25.7 | 0.00 | 0.00 | 0.00 | 100 | |
| 20260507060725 | 17 | 131 | 8.0 | 16.1 | 0.00 | 0.00 | 0.00 | 100 | |
| 20260507060225 | 17 | 136 | 9.7 | 14.5 | 0.00 | 0.00 | 0.00 | 100 | |
| 20260507055724 | 16 | 144 | 16.1 | 27.4 | 0.00 | 0.00 | 0.00 | 100 | |
| 20260507055224 | 16 | 139 | 9.7 | 12.9 | 0.00 | 0.00 | 0.00 | 100 | |
| 20260507054724 | 16 | 142 | 16.1 | 24.1 | 0.00 | 0.00 | 0.00 | 100 | |
| 20260507054224 | 16 | 140 | 11.3 | 19.3 | 0.00 | 0.00 | 0.00 | 100 | |
| 20260507053724 | 16 | 139 | 9.7 | 17.7 | 0.00 | 0.00 | 0.00 | 100 | |
| 20260507053224 | 16 | 140 | 8.0 | 14.5 | 0.00 | 0.00 | 0.00 | 100 | |
| 20260507052723 | 16 | 142 | 6.4 | 6.4 | 0.00 | 0.00 | 0.00 | 100 | |
| 20260507052223 | 16 | 145 | 4.8 | 6.4 | 0.00 | 0.00 | 0.00 | 100 | |
| 20260507051720 | 16 | 151 | 9.7 | 16.1 | 0.00 | 0.00 | 0.00 | 100 | |
| 20260507051220 | 15 | 150 | 4.8 | 9.7 | 0.00 | 0.00 | 0.00 | 100 | |
| 20260507050719 | 16 | 144 | 3.2 | 4.8 | 0.00 | 0.00 | 0.00 | 100 | |
| 20260507050219 | 16 | 144 | 3.2 | 3.2 | 0.00 | 0.00 | 0.00 | 100 | |
| 20260507045719 | 15 | 144 | 3.2 | 3.2 | 0.00 | 0.00 | 0.00 | 100 | |
| 20260507044708 | 15 | 144 | 3.2 | 3.2 | 0.00 | 0.00 | 0.00 | 100 | |
| 20260507044208 | 15 | 144 | 3.2 | 3.2 | 0.00 | 0.00 | 0.00 | 100 | |
| 20260507043707 | 16 | 159 | 3.2 | 4.8 | 0.00 | 0.00 | 0.00 | 100 | |
| 20260507043206 | 15 | 161 | 3.2 | 6.4 | 0.00 | 0.00 | 0.00 | 100 | |
| 20260507042706 | 15 | 161 | 3.2 | 3.2 | 0.00 | 0.00 | 0.00 | 100 | |
| 20260507042206 | 15 | 161 | 3.2 | 3.2 | 0.00 | 0.00 | 0.00 | 100 | |
| 20260507041706 | 15 | 145 | 3.2 | 4.8 | 0.00 | 0.00 | 0.00 | 100 | |
| 20260507041205 | 16 | 224 | 3.2 | 4.8 | 0.00 | 0.00 | 0.00 | 100 | |
| 20260507040706 | 15 | 201 | 3.2 | 4.8 | 0.00 | 0.00 | 0.00 | 100 | |
| 20260507040205 | 16 | 105 | 4.8 | 6.4 | 0.00 | 0.00 | 0.00 | 100 | |
| 20260507035705 | 16 | 115 | 4.8 | 6.4 | 0.00 | 0.00 | 0.00 | 100 | |
| 20260507035205 | 15 | 99 | 3.2 | 6.4 | 0.00 | 0.00 | 0.00 | 100 | |
| 20260507034149 | 15 | 77 | 8.0 | 12.9 | 0.00 | 0.00 | 0.00 | 100 | |
| 20260507033647 | 16 | 122 | 6.4 | 12.9 | 0.00 | 0.00 | 0.00 | 100 | |
| 20260507033147 | 15 | 115 | 6.4 | 9.7 | 0.00 | 0.00 | 0.00 | 100 | |
| 20260507032643 | 15 | 121 | 3.2 | 6.4 | 0.00 | 0.00 | 0.00 | 100 | |
| 20260507032143 | 15 | 123 | 6.4 | 9.7 | 0.00 | 0.00 | 0.00 | 100 | |
| 20260507031643 | 15 | 123 | 6.4 | 9.7 | 0.00 | 0.00 | 0.00 | 100 | |
| 20260507031143 | 15 | 127 | 4.8 | 8.0 | 0.00 | 0.00 | 0.00 | 100 | |
| 20260507030643 | 15 | 140 | 3.2 | 6.4 | 0.00 | 0.00 | 0.00 | 100 | |
| 20260507030142 | 15 | 140 | 4.8 | 6.4 | 0.00 | 0.00 | 0.00 | 100 | |
| 20260507025642 | 15 | 141 | 6.4 | 14.5 | 0.00 | 0.00 | 0.00 | 100 | |
| 20260507025142 | 15 | 141 | 9.7 | 17.7 | 0.00 | 0.00 | 0.00 | 100 | |
| 20260507024642 | 15 | 145 | 9.7 | 16.1 | 0.00 | 0.00 | 0.00 | 100 | |
| 20260507023642 | 15 | 140 | 9.7 | 12.9 | 0.00 | 0.00 | 0.00 | 100 | |
| 20260507023141 | 15 | 140 | 11.3 | 14.5 | 0.00 | 0.00 | 0.00 | 100 | |
| 20260507022641 | 15 | 143 | 9.7 | 16.1 | 0.00 | 0.00 | 0.00 | 100 | |
| 20260507022141 | 16 | 138 | 9.7 | 11.3 | 0.00 | 0.00 | 0.00 | 100 | |
| 20260507021628 | 16 | 147 | 9.7 | 12.9 | 0.00 | 0.00 | 0.00 | 100 | |
| 20260507021128 | 16 | 151 | 11.3 | 16.1 | 0.00 | 0.00 | 0.00 | 100 | |
| 20260507020628 | 16 | 156 | 9.7 | 12.9 | 0.00 | 0.00 | 0.00 | 100 | |
| 20260507020127 | 16 | 148 | 9.7 | 14.5 | 0.00 | 0.00 | 0.00 | 100 | |
| 20260507015627 | 16 | 141 | 9.7 | 19.3 | 0.00 | 0.00 | 0.00 | 100 | |
| 20260507015127 | 16 | 140 | 8.0 | 14.5 | 0.00 | 0.00 | 0.00 | 100 | |
| 20260507014627 | 16 | 152 | 9.7 | 12.9 | 0.00 | 0.00 | 0.00 | 100 | |
| 20260507014126 | 16 | 155 | 9.7 | 12.9 | 0.00 | 0.00 | 0.00 | 100 | |
| 20260507013623 | 16 | 156 | 12.9 | 16.1 | 0.00 | 0.00 | 0.00 | 100 |